All Stations Radar Satellite Rainfall Station Map Enhanced Site
Observations: Wind Gusts Humidity Temperature    
Forecasts: Wind Gusts Humidity Temperature    

Mt. Soledad (578) Station Data (Station Map)

Red Flag Warning: No
Fire Weather Zone: 243
SDGE Region: Beach Cities
Lat/Lon: 32.814/-117.241

Observations

Time (PDT)Wind Spd/GustTempRHFuel Moisture
10/22 5:00amNNW 2 G 362°93%20.66%
10/22 4:50amNNW 3 G 462°93%20.5%
10/22 4:40amN 3 G 462°93%20.26%
10/22 4:30amN 3 G 462°93%19.96%
10/22 4:20amNNE 3 G 462°93%19.73%
10/22 4:10amNNE 3 G 462°92%19.49%
10/22 4:00amNNE 3 G 463°92%19.28%
10/22 3:50amNNE 4 G 463°92%19.07%
10/22 3:40amNNE 3 G 463°92%18.9%
10/22 3:30amNE 3 G 563°92%18.74%
10/22 3:20amNNE 3 G 463°92%18.56%
10/22 3:10amN 3 G 463°93%18.45%
10/22 3:00amN 4 G 562°93%18.37%
10/22 2:50amN 4 G 562°93%18.23%
10/22 2:40amNNE 4 G 662°92%18.08%
10/22 2:30amNNE 4 G 663°91%17.94%
10/22 2:20amNNE 3 G 564°91%17.77%
10/22 2:10amN 2 G 364°91%17.68%
10/22 2:00amNNW 2 G 464°92%17.62%
10/22 1:50amNNW 2 G 464°92%17.55%
10/22 1:40amNNW 4 G 564°93%17.46%
10/22 1:30amN 3 G 464°93%17.3%
10/22 1:20amN 2 G 363°93%17.1%
10/22 1:10amNNW 2 G 363°93%17%
10/22 1:00amNNW 3 G 463°93%16.83%
10/22 12:50amNNW 3 G 463°93%16.67%
10/22 12:40amNNW 2 G 363°92%16.43%
10/22 12:30amNNW 3 G 363°92%16.28%
10/22 12:20amNNW 2 G 363°92%16.12%
10/22 12:10amNNW 2 G 363°92%15.96%
10/22 12:00amNNW 2 G 363°91%15.77%
10/21 11:50pmNNW 2 G 264°91%15.59%
10/21 11:40pmNNW 2 G 364°91%15.53%
10/21 11:30pmNNW 2 G 264°91%15.32%
10/21 11:20pmNW 1 G 264°91%15.21%
10/21 11:10pmN 1 G 264°90%15.1%
10/21 11:00pmNNW 2 G 264°90%14.98%
10/21 10:50pmN 2 G 364°90%14.8%
10/21 10:40pmN 1 G 264°90%14.62%
10/21 10:30pmN 1 G 265°89%14.49%
10/21 10:20pmN 1 G 265°89%14.32%
10/21 10:10pmN 1 G 265°89%14.27%
10/21 10:00pmNNE 2 G 365°89%14.03%
10/21 9:50pmN 3 G 465°89%13.97%
10/21 9:40pmNNW 2 G 365°89%13.89%
10/21 9:30pmNNW 1 G 265°89%13.8%
10/21 9:20pmNNW 1 G 265°89%13.67%
10/21 9:10pmNE 2 G 366°88%13.45%
10/21 9:00pmNNE 3 G 466°88%13.26%
10/21 8:50pmN 2 G 466°88%13.14%
10/21 8:40pmN 1 G 266°88%12.98%
10/21 8:30pmNNW 1 G 266°87%12.88%
10/21 8:20pmNW 2 G 466°87%12.83%
10/21 8:10pmNNW 2 G 466°87%12.61%
10/21 8:00pmN 2 G 466°86%12.46%
10/21 7:50pmNNW 2 G 467°85%12.36%
10/21 7:40pmNNW 2 G 567°85%12.23%
10/21 7:30pmNNW 3 G 567°85%12.1%
10/21 7:20pmNNW 3 G 567°84%12.03%
10/21 7:10pmNNW 4 G 767°84%11.95%
10/21 7:00pmNW 4 G 767°84%11.87%
10/21 6:50pmNW 4 G 867°84%11.79%
10/21 6:40pmNW 4 G 767°84%11.7%
10/21 6:30pmNNW 3 G 567°84%11.57%
10/21 6:20pmNW 3 G 767°83%11.46%
10/21 6:10pmNW 2 G 467°82%11.32%
10/21 6:00pmNW 3 G 768°82%11.22%
10/21 5:50pmWNW 4 G 868°82%11.13%
10/21 5:40pmWNW 5 G 868°81%11.02%
10/21 5:30pmWNW 4 G 868°79%10.92%
10/21 5:20pmWNW 5 G 969°78%10.83%
10/21 5:10pmNW 5 G 870°76%10.87%
10/21 5:00pmNW 4 G 970°76%10.86%
10/21 4:50pmNW 6 G 1070°76%10.81%
10/21 4:40pmNW 5 G 970°76%10.84%
10/21 4:30pmWNW 7 G 1269°75%10.76%
10/21 4:20pmNW 7 G 1270°75%10.85%
10/21 4:10pmNW 6 G 1271°74%10.9%
10/21 4:00pmNW 5 G 970°74%10.91%
10/21 3:50pmNW 6 G 1070°74%10.95%
10/21 3:40pmWNW 6 G 1171°75%10.96%
10/21 3:30pmNW 5 G 1170°75%11.01%
10/21 3:20pmWNW 6 G 1071°74%10.98%
10/21 3:10pmNNW 6 G 971°73%11.05%
10/21 3:00pmWNW 6 G 1071°74%11.09%
10/21 2:50pmWNW 5 G 1171°74%11.11%
10/21 2:40pmNW 6 G 1171°74%11.11%
10/21 2:30pmNW 6 G 1171°73%11.16%
10/21 2:20pmWNW 7 G 1471°73%11.14%
10/21 2:10pmWNW 7 G 1471°74%11.14%
10/21 2:00pmWNW 8 G 1370°74%11.14%
10/21 1:50pmWNW 7 G 1171°73%11.15%
10/21 1:40pmNW 7 G 1371°73%11.14%
10/21 1:30pmWNW 8 G 1371°73%11.15%
10/21 1:20pmWNW 5 G 1172°70%11.18%
10/21 1:10pmWNW 5 G 1071°71%11.19%
10/21 1:00pmWNW 6 G 1071°71%11.21%
10/21 12:50pmWNW 6 G 1071°71%11.19%
10/21 12:40pmWNW 6 G 1071°72%11.21%
10/21 12:30pmWNW 6 G 1171°72%11.24%
10/21 12:20pmWNW 6 G 1171°72%11.28%
10/21 12:10pmWNW 6 G 1071°71%11.34%
10/21 12:00pmWNW 6 G 1071°71%11.42%
10/21 11:50amW 4 G 971°71%11.56%
10/21 11:40amWNW 5 G 1071°73%11.67%
10/21 11:30amNW 5 G 1071°71%11.71%
10/21 11:20amNW 4 G 972°70%11.93%
10/21 11:10amW 3 G 671°72%11.99%
10/21 11:00amNW 4 G 970°72%12.05%
10/21 10:50amNW 5 G 871°72%12.08%
10/21 10:40amWNW 5 G 970°72%12.15%
10/21 10:30amWNW 5 G 870°73%12.23%
10/21 10:20amW 4 G 970°73%12.35%
10/21 10:10amWSW 4 G 770°72%12.42%
10/21 10:00amWNW 2 G 470°72%12.55%
10/21 9:50amSW 2 G 570°73%12.69%
10/21 9:40amSSW 2 G 670°73%12.81%
10/21 9:30amSW 2 G 470°73%12.97%
10/21 9:20amNNW 1 G 369°74%13.17%
10/21 9:10amNE 2 G 568°76%13.32%
10/21 9:00amNNE 3 G 668°76%13.53%
10/21 8:50amNE 2 G 568°78%13.76%
10/21 8:40amENE 3 G 668°78%13.94%
10/21 8:30amENE 1 G 366°81%14.12%
10/21 8:20amNE 2 G 566°81%14.09%
10/21 8:10amNNW 2 G 566°82%14.14%
10/21 8:00amN 2 G 566°81%14.16%
10/21 7:50amNNW 2 G 566°82%14.2%
10/21 7:40amNNE 2 G 466°82%14.22%
10/21 7:30amENE 3 G 466°82%14.2%
10/21 7:20amENE 2 G 366°82%14.21%
10/21 7:10amNNE 1 G 366°82%14.21%
10/21 7:00amNW 3 G 466°82%14.22%
10/21 6:50amSW 1 G 366°82%14.23%
10/21 6:40amSSE 1 G 466°82%14.24%
10/21 6:30amNW 2 G 466°83%14.25%
10/21 6:20amN 1 G 266°83%14.24%
10/21 6:10amE 1 G 366°83%14.17%
10/21 6:00amE 2 G 466°82%14.11%
10/21 5:50amE 3 G 766°81%14.1%
10/21 5:40amESE 3 G 566°81%14.09%
10/21 5:30amESE 2 G 466°81%14.08%
10/21 5:20amE 1 G 267°80%14.07%
10/21 5:10amENE 1 G 266°80%14.07%
10/21 5:00amENE 2 G 367°80%14.08%
10/21 4:50amNE 2 G 366°80%14.08%
10/21 4:40amESE 1 G 266°81%14.1%
10/21 4:30amENE 2 G 366°81%14.1%
10/21 4:20amENE 1 G 366°82%14.1%
10/21 4:10amE 1 G 266°82%14.1%
10/21 4:00amE 1 G 266°83%14.11%
10/21 3:50amE 1 G 166°83%14.11%
10/21 3:40amENE 1 G 266°83%14.1%
10/21 3:30amNE 2 G 266°83%14.09%
10/21 3:20amE 1 G 166°83%14.08%
10/21 3:10amNW 0 G 166°83%14.09%
10/21 3:00amN 0 G 066°83%14.08%
10/21 2:50amE 0 G 166°84%14.07%
10/21 2:40amENE 0 G 166°84%14.06%
10/21 2:30amENE 1 G 366°84%14.05%
10/21 2:20amNE 1 G 266°84%14.03%
10/21 2:10amNE 1 G 266°84%14.01%
10/21 2:00amNE 1 G 266°84%14%
10/21 1:50amE 0 G 166°84%13.99%
10/21 1:40amE 1 G 266°84%13.97%
10/21 1:30amNE 2 G 466°84%13.95%
10/21 1:20amNNE 2 G 466°84%13.94%
10/21 1:10amENE 1 G 266°84%13.92%
10/21 1:00amE 1 G 266°84%13.92%
10/21 12:50amNE 1 G 366°84%13.9%
10/21 12:40amNNE 2 G 466°84%13.88%
10/21 12:30amN 2 G 466°84%13.86%
10/21 12:20amNNW 1 G 266°84%13.84%
10/21 12:10amN 1 G 366°84%13.82%
10/21 12:00amN 2 G 567°84%13.8%
10/20 11:50pmN 2 G 467°84%13.77%
10/20 11:40pmN 2 G 367°84%13.76%
10/20 11:30pmNNE 3 G 467°84%13.73%
10/20 11:20pmNNW 3 G 567°83%13.71%
10/20 11:10pmNE 1 G 567°83%13.68%
10/20 11:00pmNNE 1 G 267°83%13.66%
10/20 10:50pmNE 1 G 267°83%13.65%
10/20 10:40pmNE 1 G 267°83%13.63%
10/20 10:30pmNNW 1 G 267°83%13.63%
10/20 10:20pmNW 1 G 367°83%13.61%
10/20 10:10pmNNW 1 G 267°83%13.58%
10/20 10:00pmNW 2 G 567°84%13.57%
10/20 9:50pmNW 3 G 567°84%13.54%
10/20 9:40pmNNW 3 G 567°83%13.52%
10/20 9:30pmNW 3 G 567°84%13.5%
10/20 9:20pmWNW 3 G 767°84%13.47%
10/20 9:10pmWNW 3 G 667°84%13.44%
10/20 9:00pmWNW 4 G 767°84%13.41%
10/20 8:50pmNW 3 G 567°84%13.38%
10/20 8:40pmWNW 3 G 567°83%13.35%
10/20 8:30pmWNW 3 G 567°83%13.3%
10/20 8:20pmNW 2 G 467°83%13.27%
10/20 8:10pmWNW 1 G 367°83%13.24%
10/20 8:00pmWNW 1 G 266°84%13.21%
10/20 7:50pmNNW 0 G 166°83%13.17%
10/20 7:40pmWNW 1 G 366°83%13.12%
10/20 7:30pmNW 1 G 466°83%13.01%
10/20 7:20pmNW 1 G 466°83%12.98%
10/20 7:10pmNNW 1 G 266°83%12.88%
10/20 7:00pmNW 1 G 366°82%12.83%
10/20 6:50pmNW 2 G 467°82%12.75%
10/20 6:40pmNW 2 G 467°81%12.64%
10/20 6:30pmNW 2 G 567°81%12.56%
10/20 6:20pmNW 3 G 667°80%12.48%
10/20 6:10pmNW 3 G 867°80%12.4%
10/20 6:00pmWNW 3 G 867°79%12.32%